User: anonymous   Login
Location: Unspecified
(0.0000°N, 0.0000°E)
Time: 07:41:29
(UTC+00:00)
Language:

TEN-KOH - Orbit

View from above orbital plane
View from above orbital plane
View from above satellite
View from above satellite

Ground track
Ground track

The orbit data is extracted from the following two-line orbital elements,

1 43677U 18084G   20223.87445894 +.00000186 +00000-0 +24966-4 0  9992
2 43677 097.8884 340.8229 0015535 343.9957 016.0767 14.90304498097049
Epoch (UTC): 10 August 2020 20:59:13
Eccentricity: 0.0015535
inclination: 97.8884°
perigee height: 586 km
apogee height: 608 km
right ascension of ascending node: 340.8229°
argument of perigee: 343.9957°
revolutions per day: 14.90304498
mean anomaly at epoch: 16.0767°
orbit number at epoch: 9704

The dashed part of the orbit path shows where the satellite is in the earth's shadow,  

DLR